Location: North Evanston
(42.0634°N, 87.6976°W)
Time: 05:14:26
(UTC+00:00)

Explorer 11/Cluster Stage 4 - Pass Details

Date: 16 May 2026
Orbit: 463 x 1173 km, 28.8° (Epoch: 7 June)

Event Time Altitude Azimuth Distance (km) Brightness Sun altitude
Rises 02:25:10 0° 211° (SSW) 3,994 10.1 -13.1°
Reaches altitude 10° 02:29:46 10° 187° (S) 2,951 9.2 -13.8°
Enters shadow 02:32:35 13° 165° (SSE) 2,627 8.7 -14.2°
